Total_Precipitation_Accumulation
0.02 0.00 0.00 0.00 0.00 0.00 0.00 0.00 0.00 0.00 0.01 0.00 0.00 0.00 0.00 0.04 0.15 0.07 0.03 0.01 0.01 0.01 0.00 0.02 0.05 0.06 0.08 0.18 0.42 0.64 1.00 0.97 0.47 0.23 0.14 0.26 0.46 0.59 0.52 0.38 0.28 0.44 0.49 0.45
0.04 0.03 0.01 0.01 0.00 0.00 0.00 0.00 0.00 0.00 0.00 0.00 0.00 0.00 0.00 0.00 0.02 0.00 0.00 0.01 0.00 0.01 0.00 0.01 0.04 0.10 0.29 0.44 0.44 0.33 0.15 0.13 0.04 0.06 0.08 0.11 0.20 0.41 0.40 0.34 0.17 0.30 0.41 0.61
0.04 0.02 0.00 0.00 0.00 0.00 0.00 0.00 0.00 0.00 0.00 0.01 0.01 0.00 0.00 0.00 0.00 0.00 0.01 0.03 0.01 0.01 0.01 0.04 0.08 0.13 0.11 0.05 0.02 0.06 0.08 0.14 0.05 0.04 0.05 0.09 0.27 0.42 0.33 0.38 0.23 0.21 0.26 0.38
0.04 0.00 0.01 0.04 0.04 0.00 0.00 0.00 0.00 0.01 0.03 0.04 0.00 0.01 0.01 0.00 0.00 0.00 0.01 0.02 0.02 0.02 0.03 0.03 0.00 0.00 0.01 0.02 0.03 0.06 0.12 0.15 0.05 0.02 0.02 0.04 0.13 0.23 0.24 0.21 0.18 0.14 0.18 0.26
0.08 0.00 0.07 0.07 0.02 0.00 0.00 0.00 0.04 0.04 0.01 0.02 0.01 0.04 0.02 0.01 0.00 0.00 0.00 0.00 0.03 0.01 0.00 0.00 0.01 0.00 0.00 0.04 0.07 0.08 0.12 0.16 0.08 0.02 0.07 0.14 0.16 0.19 0.23 0.19 0.14 0.10 0.11 0.16
0.01 0.01 0.04 0.04 0.00 0.03 0.07 0.03 0.07 0.04 0.06 0.09 0.01 0.04 0.03 0.02 0.01 0.02 0.00 0.00 0.09 0.02 0.01 0.02 0.02 0.01 0.01 0.05 0.08 0.10 0.13 0.19 0.10 0.07 0.08 0.14 0.18 0.16 0.15 0.11 0.10 0.06 0.08 0.12
0.01 0.00 0.00 0.00 0.01 0.02 0.08 0.18 0.34 0.39 0.21 0.09 0.03 0.03 0.01 0.01 0.01 0.08 0.04 0.00 0.00 0.00 0.01 0.03 0.02 0.01 0.02 0.04 0.08 0.08 0.07 0.10 0.10 0.13 0.07 0.06 0.13 0.16 0.16 0.13 0.17 0.12 0.07 0.07
0.06 0.04 0.02 0.00 0.00 0.02 0.07 0.20 0.22 0.24 0.18 0.08 0.03 0.01 0.00 0.00 0.00 0.00 0.01 0.00 0.00 0.00 0.00 0.01 0.01 0.02 0.03 0.07 0.18 0.12 0.11 0.11 0.07 0.11 0.17 0.21 0.26 0.31 0.37 0.36 0.31 0.19 0.21 0.24
0.02 0.02 0.01 0.00 0.00 0.03 0.09 0.13 0.09 0.34 0.16 0.09 0.01 0.01 0.00 0.00 0.00 0.00 0.00 0.00 0.00 0.00 0.00 0.00 0.01 0.02 0.03 0.03 0.16 0.20 0.13 0.12 0.08 0.11 0.16 0.25 0.38 0.40 0.31 0.35 0.58 0.42 0.37 0.28
0.01 0.08 0.02 0.00 0.00 0.00 0.05 0.18 0.22 0.37 0.21 0.15 0.00 0.02 0.03 0.02 0.01 0.00 0.00 0.00 0.00 0.00 0.00 0.00 0.00 0.00 0.01 0.02 0.11 0.16 0.10 0.11 0.10 0.08 0.10 0.15 0.27 0.41 0.48 0.80 1.10 1.22 0.99 0.77
0.00 0.03 0.08 0.01 0.00 0.01 0.03 0.25 0.26 0.18 0.08 0.15 0.09 0.13 0.06 0.02 0.01 0.00 0.00 0.00 0.00 0.00 0.00 0.00 0.00 0.01 0.00 0.01 0.05 0.13 0.23 0.23 0.09 0.10 0.20 0.33 0.40 0.58 0.92 0.88 1.17 0.94 0.90 0.96
0.00 0.00 0.02 0.02 0.01 0.01 0.03 0.06 0.19 0.37 0.18 0.08 0.16 0.14 0.18 0.04 0.01 0.00 0.00 0.00 0.00 0.00 0.00 0.00 0.00 0.01 0.00 0.00 0.01 0.07 0.29 0.53 0.73 0.69 1.01 0.92 1.05 1.21 1.11 1.38 1.94 1.33 0.98 0.72
0.00 0.01 0.01 0.06 0.05 0.06 0.05 0.09 0.16 0.17 0.32 0.40 0.35 0.10 0.28 0.37 0.09 0.01 0.00 0.00 0.00 0.00 0.00 0.00 0.00 0.00 0.00 0.01 0.05 0.22 0.72 1.14 0.96 1.03 1.00 1.09 1.49 0.97 0.59 0.44 0.37 0.33 0.25 0.19
0.00 0.02 0.04 0.13 0.33 0.40 0.22 0.17 0.16 0.27 0.34 0.13 0.15 0.11 0.11 0.54 0.48 0.20 0.02 0.00 0.00 0.00 0.02 0.01 0.01 0.04 0.09 0.13 0.21 0.26 0.48 0.70 0.73 0.75 0.72 0.65 0.63 0.61 0.38 0.30 0.25 0.26 0.24 0.22
0.02 0.01 0.01 0.03 0.12 0.21 0.25 0.23 0.23 0.28 0.20 0.21 0.04 0.05 0.08 0.14 0.57 0.58 0.21 0.03 0.01 0.00 0.00 0.02 0.03 0.05 0.13 0.23 0.26 0.26 0.31 0.33 0.35 0.39 0.31 0.29 0.25 0.18 0.16 0.16 0.12 0.13 0.07 0.06
0.02 0.01 0.00 0.00 0.00 0.01 0.01 0.05 0.13 0.19 0.27 0.27 0.12 0.09 0.07 0.05 0.23 0.58 0.32 0.15 0.04 0.00 0.00 0.00 0.01 0.03 0.04 0.06 0.11 0.16 0.14 0.20 0.21 0.26 0.27 0.25 0.22 0.22 0.17 0.16 0.16 0.08 0.07 0.10
0.07 0.08 0.05 0.02 0.01 0.01 0.01 0.00 0.00 0.02 0.04 0.10 0.08 0.06 0.02 0.09 0.16 0.24 0.28 0.18 0.09 0.01 0.01 0.00 0.00 0.02 0.12 0.05 0.06 0.08 0.13 0.13 0.17 0.22 0.23 0.19 0.25 0.22 0.23 0.22 0.19 0.26 0.35 0.31
0.18 0.13 0.16 0.08 0.03 0.12 0.04 0.01 0.00 0.08 0.15 0.03 0.03 0.05 0.04 0.14 0.07 0.02 0.06 0.11 0.14 0.07 0.03 0.01 0.00 0.08 0.06 0.01 0.02 0.03 0.05 0.06 0.07 0.14 0.20 0.20 0.16 0.17 0.20 0.23 0.29 0.38 0.41 0.38
0.18 0.22 0.34 0.16 0.08 0.05 0.00 0.00 0.00 0.03 0.05 0.03 0.08 0.18 0.01 0.04 0.08 0.08 0.08 0.09 0.08 0.07 0.04 0.01 0.00 0.00 0.00 0.00 0.00 0.01 0.01 0.00 0.02 0.06 0.11 0.12 0.13 0.20 0.30 0.38 0.40 0.28 0.19 0.18
0.36 0.26 0.31 0.33 0.24 0.09 0.00 0.00 0.00 0.01 0.04 0.01 0.05 0.30 0.12 0.02 0.04 0.07 0.09 0.16 0.12 0.04 0.00 0.00 0.00 0.00 0.00 0.00 0.00 0.00 0.00 0.00 0.01 0.03 0.07 0.08 0.21 0.38 0.43 0.36 0.21 0.15 0.12 0.15
0.28 0.42 0.38 0.34 0.32 0.07 0.00 0.00 0.01 0.12 0.10 0.01 0.02 0.09 0.20 0.08 0.10 0.12 0.05 0.07 0.05 0.02 0.00 0.00 0.00 0.00 0.00 0.00 0.00 0.00 0.00 0.01 0.02 0.06 0.14 0.24 0.26 0.19 0.14 0.16 0.15 0.15 0.20 0.22
0.16 0.28 0.34 0.39 0.39 0.15 0.02 0.12 0.23 0.18 0.04 0.02 0.02 0.01 0.05 0.09 0.09 0.03 0.00 0.00 0.01 0.00 0.00 0.00 0.00 0.00 0.01 0.01 0.01 0.01 0.01 0.02 0.03 0.05 0.05 0.05 0.10 0.13 0.14 0.15 0.17 0.18 0.19 0.21
0.27 0.08 0.12 0.12 0.09 0.10 0.16 0.18 0.19 0.12 0.11 0.08 0.04 0.05 0.09 0.05 0.00 0.00 0.00 0.00 0.00 0.00 0.00 0.00 0.01 0.02 0.02 0.01 0.01 0.02 0.01 0.02 0.01 0.02 0.03 0.05 0.10 0.13 0.16 0.21 0.23 0.24 0.25 0.25
0.55 0.46 0.29 0.23 0.21 0.19 0.38 0.28 0.08 0.06 0.13 0.11 0.04 0.04 0.03 0.02 0.02 0.03 0.02 0.01 0.01 0.01 0.02 0.02 0.02 0.01 0.01 0.01 0.01 0.02 0.02 0.03 0.04 0.03 0.02 0.03 0.09 0.14 0.12 0.15 0.15 0.17 0.20 0.26
0.28 0.55 0.59 0.55 0.45 0.38 0.57 0.57 0.43 0.27 0.07 0.08 0.07 0.03 0.01 0.01 0.02 0.02 0.02 0.01 0.01 0.01 0.01 0.01 0.01 0.01 0.00 0.02 0.02 0.04 0.04 0.04 0.05 0.06 0.07 0.08 0.09 0.10 0.08 0.12 0.22 0.26 0.39 0.55
0.16 0.40 0.75 1.09 0.76 0.61 0.64 0.28 0.18 0.17 0.08 0.02 0.02 0.02 0.02 0.02 0.00 0.01 0.02 0.02 0.01 0.01 0.02 0.02 0.02 0.01 0.02 0.02 0.02 0.02 0.01 0.03 0.07 0.10 0.11 0.18 0.18 0.20 0.21 0.23 0.31 0.42 0.45 0.48